Starlink 11544

operational
NORAD ID: 62984 Int'l Des: 2025-031 Owner: SPXS Country: US Constellation: starlink
LEOCIRCULAR

关于 Starlink 11544

正在加载描述...

实时位置

正在加载3D地球...

即将过境

高度历史

Altitude vs Time

uPlot chart will show altitude changes over time

两行轨道根数

1 62984U 25031D 25258.25782980 .00408663 00000-0 30189-2 0 9993
2 62984 42.9991 338.7169 0001768 260.9848 99.0820 15.70961441 35128
Epoch: Sep 15, 2025 • Age: 15 hours

当前状态

高度 354.3 km
速度 7.70 km/s
星下点 3.68°N, 21.71°E
发射日期 Feb 11, 2025
运行时间 0.5 years
类型 internet

技术详情

分类 Payload
质量 960.00 kg
干质量 910.00 kg
总质量 960.00 kg
长度 0.30 m
直径 4.10 m
跨度 29.00 m
形状 Box + pan
制造商 SPXS
平台类型 Starlink V2MD
阶段状态 In Orbit
所有者/国家 SPXS/US

大型星座

Loading constellations...